Location: Ailly
(50.0793°N, 1.9944°E)
Time: 08:53:17
(UTC+00:00)

Meteor 2-10 Rocket - Pass Details

Date: 15 January 2026
Orbit: 733 x 881 km, 81.2° (Epoch: 14 February)

Event Time Altitude Azimuth Distance (km) Brightness Sun altitude
Rises 05:25:31 0° 184° (S) 3,170 6.7 -21.7°
Reaches altitude 10° 05:27:48 10° 182° (S) 2,263 6.0 -21.3°
Maximum altitude 05:32:52 73° 99° (E) 806 3.7 -20.5°
Drops below altitude 10° 05:38:09 10° 16° (NNE) 2,362 6.1 -19.7°
Sets 05:40:35 0° 14° (NNE) 3,320 6.9 -19.3°
